Notices

What's New in latest Release from April 7th, 2021:

- Updated Glossary, including Speed of Maximum Gust, and Total Hourly Precipitation

- Updated national and regional climate services offices contacts and prices information

- Addition of station inventory lists for 1981-2010, 1971-2000, and 1961-1990 Normals.

If you haven't already, please take our survey and provide feedback about our website: https://eccc.sondage-survey.ca/f/LanguageSelection.aspx?s=442ca660-fcf1-47c0-95a9-59707d6fd709

Hourly Data Report for November 24, 2020

VICTORIA UNIVERSITY CS
BRITISH COLUMBIA
Current Station Operator: ECCC - MSC

48°27'25.200" N
123°18'16.600" W
60.10 m
1018598
71783
WYJ

Download Data

Hourly Data (November 2020)
Hourly Data Report for November 24, 2020
TIME
LST
Temp Definition
°C
Dew Point Definition
°C
Rel Hum Definition
%
Precip. Amount Definition
mm

Wind Dir Definition
10's deg

Wind Spd Definition
km/h
Visibility Definition
km
Stn Press Definition
kPa
Hmdx Definition


Wind Chill Definition


Weather Definition


00:00 7.7 6.3 91 0.0 12 3   101.22     LegendNANA
01:00 7.6 7.0 96 0.0 13 2   101.16     LegendNANA
02:00 7.5 6.6 94 0.0 12 2   101.09     LegendNANA
03:00 7.1 5.7 91 0.0 12 2   101.08     LegendNANA
04:00 7.0 6.2 94 0.0 11 2   100.99     LegendNANA
05:00 7.3 6.7 96 0.0 12 3   100.88     LegendNANA
06:00 7.4 6.7 96 0.0 13 3   100.78     LegendNANA
07:00 7.4 6.8 96 0.0 11 3   100.64     LegendNANA
08:00 7.7 7.0 96 0.0 13 4   100.52     LegendNANA
09:00 7.9 7.2 95 0.0 13 3   100.48     LegendNANA
10:00 8.4 7.2 92 0.0 10 1   100.34     LegendNANA
11:00 9.3 7.6 89 0.0 13 2   100.19     LegendNANA
12:00 8.4 5.2 80 0.0 22 4   100.18     LegendNANA
13:00 7.8 7.2 96 0.7 21 6   100.16     LegendNANA
14:00 6.4 5.3 93 1.8 25 13   100.27     LegendNANA
15:00 5.8 5.5 97 1.2 25 10   100.29     LegendNANA
16:00 5.4 4.6 95 0.0 24 11   100.27     LegendNANA
17:00 5.3 4.8 97 0.2 24 9   100.24     LegendNANA
18:00 5.1 4.5 96 0.0 25 8   100.32     LegendNANA
19:00 4.7 3.8 94 0.0 26 4   100.39     LegendNANA
20:00 5.1 4.0 92 0.0 25 9   100.40     LegendNANA
21:00 4.9 4.0 94 0.0 26 7   100.45     LegendNANA
22:00 4.6 4.0 95 0.0 28 4   100.50     LegendNANA
23:00 4.8 4.6 98 0.0 0 1   100.53     LegendNANA

Notes on Data Quality.

Legend

  • E = Estimated
  • M = Missing
  • NA = Not Available*
  • [empty] = Indicates an unobserved value
Date modified: